Location: Moscow
(38.8570°N, 84.2291°W)
Time: 09:29:53
(UTC+00:00)

UKube-1 - Pass Details

Date: 14 March 2026
Orbit: 527 x 530 km, 98.4° (Epoch: 19 April)

Event Time Altitude Azimuth Distance (km) Brightness Sun altitude
Rises 11:19:46 0° 6° (N) 2,674 ? -6.7°
Reaches altitude 10° 11:21:56 10° 0° (N) 1,779 ? -6.2°
Maximum altitude 11:25:36 45° 287° (WNW) 722 ? -5.5°
Drops below altitude 10° 11:29:14 10° 214° (SW) 1,764 ? -4.8°
Sets 11:31:23 0° 208° (SSW) 2,648 ? -4.4°
